Temp
53 53 54 53 54 54 53 52 51 52 52 51 52 51 52 52 51 52 51 51 52 52 52 52 52 53 52 50 51 52 52 51 51 49 51 51 50 50 51 51 50 51
53 54 55 54 53 54 53 53 53 53 53 51 52 51 50 51 51 52 51 51 53 51 51 51 51 51 50 51 51 51 50 49 50 52 49 50 50 49 50 49 51 50
53 53 53 53 54 53 53 52 52 52 53 52 51 51 51 51 51 50 52 52 51 50 50 50 50 51 50 50 50 51 49 49 49 50 51 50 49 50 51 50 49 50
53 54 54 54 54 54 53 52 51 52 51 51 51 51 52 52 51 50 51 54 50 50 49 49 50 49 49 49 49 49 49 49 49 49 50 49 48 49 49 49 50 50
54 54 54 54 54 54 53 53 52 52 52 52 51 50 52 51 50 51 51 50 50 49 49 49 48 49 49 48 48 48 49 49 47 47 48 49 47 50 50 50 49 49
54 55 55 55 55 53 52 53 53 53 52 51 51 51 51 52 51 51 51 50 49 49 48 47 48 47 47 47 47 47 47 47 47 47 47 48 48 48 49 49 49 48
55 54 54 55 54 53 54 53 53 53 53 53 51 51 51 51 51 51 50 50 49 50 49 48 48 47 47 46 47 46 46 46 46 47 47 47 48 48 48 48 49 49
55 55 55 54 54 53 54 54 53 53 52 52 52 52 51 52 51 51 50 49 49 48 47 46 46 46 45 46 46 45 46 47 46 46 46 46 47 47 47 48 48 48
56 55 55 54 54 54 53 54 53 52 52 52 52 50 50 52 51 50 49 49 48 46 46 46 46 46 45 46 45 46 47 46 46 46 47 46 46 46 47 48 47 47
56 56 55 54 54 54 53 53 52 52 52 52 52 50 50 50 50 50 49 48 48 46 46 46 45 45 45 45 46 46 46 47 45 46 45 46 46 46 46 47 47 47
56 55 55 54 54 54 53 53 52 52 51 52 50 50 50 49 49 48 48 48 48 47 46 45 46 45 45 45 45 45 46 45 45 45 45 46 46 46 48 48 47 47
56 54 55 55 55 53 52 52 52 52 51 51 52 51 49 49 49 48 49 47 46 46 46 46 45 45 45 46 44 44 44 44 45 46 46 46 46 46 46 47 47 47
55 54 53 53 53 54 53 53 52 52 51 51 51 51 50 48 48 48 48 47 46 46 46 46 45 44 44 44 44 43 44 45 44 44 45 45 46 46 47 47 47 47
54 53 53 54 54 53 52 51 51 51 51 51 51 50 50 49 48 48 47 47 46 47 46 45 44 43 42 42 43 43 44 44 44 45 45 45 45 45 46 46 46 47
53 53 53 53 53 51 50 49 48 49 49 50 50 50 50 49 48 47 46 45 45 44 44 45 45 45 44 44 44 44 43 44 43 44 43 43 44 44 44 45 45 46
53 53 53 53 52 50 49 48 49 50 50 50 49 49 49 48 47 47 47 46 44 43 44 45 45 44 47 45 45 46 43 43 43 43 43 42 43 43 43 44 44 44
51 52 52 51 50 49 49 50 51 51 50 49 48 48 48 48 47 46 45 45 45 44 44 44 44 45 44 40 41 42 43 42 42 42 42 42 42 42 42 43 44 44
50 50 49 49 49 50 51 51 51 50 49 49 48 46 46 47 46 46 44 44 44 44 44 44 43 45 41 40 40 41 43 44 42 42 42 41 42 41 42 42 43 43
50 49 49 48 49 50 51 51 51 50 49 48 47 47 45 45 45 44 44 44 44 43 43 44 44 43 41 41 40 40 40 41 41 41 41 41 41 41 41 42 42 42
50 49 48 48 48 49 50 51 50 49 49 49 47 45 45 44 43 43 43 43 44 44 43 43 42 43 40 40 40 40 39 40 42 41 41 41 41 41 41 42 42 42
49 48 48 47 48 49 49 49 49 48 48 47 46 45 43 42 42 42 43 43 43 42 42 42 42 42 40 40 39 39 39 40 41 40 40 40 40 40 41 41 41 41
48 48 47 47 47 48 48 49 48 48 46 44 45 44 44 44 43 44 43 42 41 41 41 40 39 39 39 39 39 39 39 41 40 39 39 39 39 40 40 41 41 41
48 48 47 47 47 47 47 47 46 45 43 45 44 43 42 42 42 42 43 41 40 39 40 39 37 38 39 39 39 39 39 40 39 39 38 38 38 39 40 40 40 41
48 48 47 47 46 47 47 46 45 44 43 44 42 42 42 43 43 42 40 41 40 39 39 38 38 38 39 39 39 39 40 39 38 37 37 37 38 38 39 39 40 41
48 47 47 47 46 46 44 43 42 43 43 44 44 45 43 43 42 42 39 39 39 38 42 39 37 39 40 38 39 39 40 39 38 37 36 37 37 37 38 39 39 40
47 47 46 46 45 44 44 42 42 41 41 41 42 43 42 41 41 41 40 39 39 40 41 38 37 36 38 38 39 39 39 40 39 37 36 36 37 37 37 38 39 40
MSLP
1016.85 1017.13 1017.17 1017.29 1017.33 1017.41 1017.53 1017.77 1018.05 1018.05 1018.17 1018.45 1018.49 1018.65 1018.69 1018.85 1019.17 1019.25 1019.41 1019.61 1019.73 1019.89 1020.13 1020.29 1020.45 1020.61 1020.69 1020.81 1020.89 1020.93 1021.05 1021.21 1021.29 1021.37 1021.37 1021.45 1021.53 1021.57 1021.61 1021.65 1021.69 1021.73
1016.61 1016.85 1016.97 1017.09 1017.25 1017.45 1017.57 1017.65 1017.73 1017.85 1017.97 1018.21 1018.25 1018.41 1018.65 1018.77 1019.05 1019.13 1019.33 1019.53 1019.69 1019.89 1020.09 1020.29 1020.41 1020.49 1020.57 1020.65 1020.73 1020.81 1021.01 1021.21 1021.33 1021.45 1021.37 1021.41 1021.53 1021.57 1021.61 1021.69 1021.73 1021.85
1016.37 1016.65 1016.85 1016.89 1016.93 1017.05 1017.21 1017.49 1017.69 1017.81 1017.85 1017.97 1018.25 1018.41 1018.41 1018.69 1018.81 1019.09 1019.17 1019.37 1019.61 1019.85 1019.97 1020.09 1020.25 1020.29 1020.41 1020.53 1020.65 1020.77 1020.93 1021.09 1021.29 1021.49 1021.45 1021.49 1021.61 1021.61 1021.61 1021.65 1021.69 1021.77
1016.17 1016.25 1016.41 1016.57 1016.69 1016.81 1017.13 1017.37 1017.57 1017.77 1017.97 1018.09 1018.17 1018.25 1018.33 1018.53 1018.69 1018.93 1019.13 1019.29 1019.49 1019.69 1019.89 1020.09 1020.13 1020.25 1020.33 1020.41 1020.49 1020.65 1020.81 1021.01 1021.25 1021.37 1021.37 1021.53 1021.61 1021.65 1021.65 1021.73 1021.73 1021.77
1015.85 1016.09 1016.25 1016.33 1016.49 1016.69 1016.97 1017.13 1017.17 1017.45 1017.57 1017.69 1018.01 1018.29 1018.41 1018.53 1018.73 1018.89 1019.05 1019.25 1019.37 1019.61 1019.89 1020.01 1020.09 1020.21 1020.37 1020.49 1020.53 1020.65 1020.85 1020.93 1021.13 1021.13 1021.13 1021.17 1021.37 1021.49 1021.53 1021.61 1021.69 1021.73
1015.93 1015.89 1015.93 1016.05 1016.21 1016.45 1016.73 1016.77 1016.85 1017.05 1017.33 1017.61 1017.69 1018.05 1018.17 1018.33 1018.57 1018.77 1019.01 1019.17 1019.37 1019.53 1019.73 1019.81 1019.89 1020.25 1020.45 1020.57 1020.65 1020.77 1020.93 1020.97 1021.17 1021.21 1021.17 1021.17 1021.21 1021.33 1021.33 1021.37 1021.45 1021.49
1015.69 1015.89 1015.89 1015.93 1016.05 1016.25 1016.33 1016.41 1016.57 1016.81 1016.97 1017.09 1017.57 1017.77 1018.05 1018.21 1018.41 1018.65 1018.89 1019.09 1019.33 1019.45 1019.49 1019.65 1019.85 1020.17 1020.41 1020.45 1020.49 1020.73 1021.01 1021.05 1021.29 1021.33 1021.29 1021.45 1021.49 1021.41 1021.45 1021.45 1021.41 1021.41
1015.81 1015.77 1015.77 1015.89 1015.89 1015.97 1016.09 1016.17 1016.33 1016.53 1016.81 1017.21 1017.33 1017.61 1017.85 1017.97 1018.21 1018.57 1018.81 1019.05 1019.21 1019.37 1019.53 1019.73 1019.89 1020.09 1020.29 1020.29 1020.41 1020.57 1020.81 1021.05 1021.13 1021.21 1021.25 1021.41 1021.61 1021.49 1021.53 1021.61 1021.65 1021.61
1015.17 1015.57 1015.69 1015.73 1015.81 1015.77 1015.81 1015.89 1016.13 1016.41 1016.73 1016.89 1017.21 1017.57 1017.93 1017.89 1018.13 1018.37 1018.65 1018.89 1019.05 1019.33 1019.57 1019.73 1019.89 1020.01 1020.09 1020.13 1020.33 1020.45 1020.57 1020.81 1021.05 1021.13 1021.21 1021.29 1021.37 1021.45 1021.53 1021.61 1021.61 1021.61
1015.17 1015.05 1015.37 1015.57 1015.57 1015.41 1015.49 1015.61 1015.89 1016.17 1016.45 1016.69 1017.01 1017.41 1017.69 1018.01 1018.09 1018.25 1018.45 1018.65 1018.81 1019.17 1019.45 1019.69 1019.85 1019.97 1020.05 1020.21 1020.29 1020.37 1020.49 1020.61 1020.81 1021.01 1021.17 1021.25 1021.37 1021.41 1021.41 1021.45 1021.45 1021.49
1015.05 1015.29 1015.33 1015.29 1015.25 1015.25 1015.33 1015.53 1015.69 1015.89 1016.17 1016.33 1016.77 1017.17 1017.49 1017.81 1018.09 1018.17 1018.25 1018.45 1018.65 1018.97 1019.29 1019.49 1019.69 1019.89 1020.05 1020.25 1020.37 1020.45 1020.53 1020.61 1020.77 1020.89 1021.01 1021.09 1021.17 1021.25 1021.25 1021.25 1021.29 1021.25
1014.41 1014.61 1014.81 1014.85 1015.13 1015.61 1015.65 1015.65 1015.77 1015.81 1015.81 1015.97 1016.17 1016.65 1017.21 1017.49 1017.69 1018.05 1018.05 1018.33 1018.65 1018.97 1019.17 1019.41 1019.65 1019.81 1019.97 1020.13 1020.37 1020.53 1020.61 1020.69 1020.77 1020.85 1020.89 1020.97 1020.97 1021.01 1021.05 1021.05 1021.01 1020.97
1014.41 1014.45 1014.61 1014.89 1015.13 1015.05 1015.13 1015.29 1015.37 1015.49 1015.65 1015.69 1015.81 1016.09 1016.65 1017.13 1017.57 1017.77 1018.13 1018.25 1018.65 1018.89 1019.13 1019.37 1019.61 1019.89 1020.09 1020.29 1020.37 1020.49 1020.61 1020.65 1020.73 1020.77 1020.85 1020.89 1020.93 1020.89 1020.89 1020.85 1020.81 1020.77
1013.97 1014.05 1014.21 1014.29 1014.49 1014.69 1015.01 1015.37 1015.77 1016.13 1016.21 1016.05 1016.01 1015.93 1016.13 1016.57 1017.09 1017.53 1018.05 1018.25 1018.49 1018.73 1019.09 1019.41 1019.69 1019.97 1020.13 1020.25 1020.37 1020.49 1020.57 1020.65 1020.73 1020.81 1020.85 1020.97 1020.97 1020.97 1020.93 1020.89 1020.77 1020.69
1013.73 1013.85 1013.89 1013.97 1014.13 1014.45 1014.89 1015.33 1015.69 1016.05 1016.77 1017.33 1017.05 1016.49 1016.21 1016.33 1016.89 1017.41 1017.89 1018.25 1018.61 1018.77 1019.09 1019.37 1019.57 1019.77 1019.93 1020.09 1020.25 1020.33 1020.49 1020.53 1020.65 1020.77 1020.85 1020.93 1020.97 1020.97 1020.89 1020.81 1020.69 1020.57
1013.49 1013.61 1013.65 1013.73 1013.97 1014.37 1014.85 1015.17 1015.41 1015.73 1015.93 1015.97 1016.37 1016.61 1016.61 1016.57 1016.89 1017.37 1017.61 1017.97 1018.41 1018.81 1019.05 1019.25 1019.41 1019.69 1019.81 1019.97 1020.05 1020.13 1020.29 1020.41 1020.53 1020.61 1020.69 1020.73 1020.81 1020.77 1020.73 1020.61 1020.49 1020.37
1013.49 1013.45 1013.57 1013.73 1014.09 1014.45 1014.61 1014.57 1014.49 1014.57 1014.97 1015.65 1016.29 1016.85 1016.97 1016.73 1016.73 1017.17 1017.61 1018.01 1018.29 1018.69 1019.01 1019.21 1019.33 1019.53 1019.65 1019.77 1019.89 1020.09 1020.21 1020.29 1020.37 1020.37 1020.49 1020.53 1020.57 1020.57 1020.45 1020.33 1020.21 1020.09
1013.41 1013.49 1013.65 1013.85 1014.05 1014.05 1014.13 1014.25 1014.45 1014.77 1015.17 1015.49 1015.57 1016.05 1016.73 1016.77 1016.57 1016.77 1017.33 1017.89 1018.41 1018.81 1019.01 1019.13 1019.25 1019.33 1019.45 1019.65 1019.85 1019.93 1020.05 1020.13 1020.29 1020.33 1020.33 1020.37 1020.37 1020.33 1020.21 1020.05 1019.89 1019.77
1013.37 1013.49 1013.65 1013.89 1013.89 1013.81 1013.85 1014.13 1014.29 1014.57 1014.89 1015.05 1015.09 1015.41 1016.17 1016.41 1016.49 1016.69 1017.09 1017.61 1018.09 1018.53 1018.81 1018.97 1019.05 1019.17 1019.29 1019.53 1019.65 1019.77 1019.89 1020.09 1020.25 1020.29 1020.25 1020.21 1020.21 1020.09 1019.97 1019.77 1019.57 1019.45
1013.41 1013.41 1013.49 1013.65 1013.73 1013.73 1013.73 1013.77 1013.97 1014.17 1014.37 1014.53 1014.97 1015.45 1015.73 1016.33 1016.77 1016.81 1017.25 1017.61 1018.01 1018.25 1018.53 1018.85 1018.93 1019.09 1019.25 1019.45 1019.65 1019.81 1019.89 1020.05 1020.09 1020.13 1020.09 1020.09 1020.01 1019.89 1019.69 1019.45 1019.29 1019.17
1013.33 1013.25 1013.29 1013.49 1013.61 1013.61 1013.65 1013.65 1013.73 1014.05 1014.33 1014.57 1014.85 1015.09 1015.53 1016.05 1016.49 1016.85 1017.21 1017.57 1017.89 1018.13 1018.33 1018.65 1018.85 1019.13 1019.45 1019.61 1019.65 1019.73 1019.81 1019.89 1019.89 1019.97 1019.97 1019.89 1019.81 1019.65 1019.45 1019.25 1019.09 1018.97
1013.05 1012.97 1013.05 1013.21 1013.37 1013.49 1013.57 1013.65 1013.81 1014.05 1014.21 1014.65 1014.93 1015.17 1015.45 1015.85 1016.53 1016.85 1017.29 1017.65 1017.93 1018.09 1018.29 1018.57 1018.97 1019.37 1019.33 1019.49 1019.53 1019.57 1019.69 1019.77 1019.81 1019.85 1019.85 1019.73 1019.57 1019.37 1019.21 1019.05 1018.93 1018.81
1012.77 1012.73 1012.81 1012.97 1013.17 1013.41 1013.57 1013.65 1013.89 1014.29 1014.73 1014.77 1014.73 1015.09 1015.41 1015.85 1016.37 1016.81 1017.13 1017.45 1017.85 1018.13 1018.21 1018.49 1018.85 1019.25 1019.33 1019.33 1019.41 1019.45 1019.53 1019.65 1019.73 1019.77 1019.73 1019.57 1019.37 1019.17 1019.01 1018.85 1018.73 1018.53
1012.41 1012.41 1012.57 1012.73 1012.97 1013.13 1013.29 1013.57 1013.97 1014.33 1014.57 1014.81 1014.73 1015.05 1015.49 1015.97 1016.33 1016.69 1017.17 1017.37 1017.57 1017.89 1018.17 1018.45 1018.81 1019.05 1019.17 1019.21 1019.21 1019.25 1019.33 1019.53 1019.57 1019.57 1019.49 1019.33 1019.09 1018.97 1018.81 1018.61 1018.45 1018.21
1012.01 1012.09 1012.17 1012.37 1012.61 1012.85 1013.25 1013.77 1014.37 1014.69 1014.77 1014.65 1014.57 1014.89 1015.37 1015.97 1016.25 1016.53 1017.13 1017.53 1017.69 1017.89 1018.25 1018.41 1018.69 1018.85 1018.97 1019.01 1019.01 1019.01 1019.13 1019.21 1019.21 1019.25 1019.25 1019.09 1018.89 1018.61 1018.49 1018.29 1018.05 1017.85
1011.73 1011.73 1011.85 1012.09 1012.41 1012.81 1013.13 1013.57 1014.05 1014.57 1015.09 1015.33 1015.49 1015.41 1015.73 1016.09 1016.33 1016.61 1016.89 1017.49 1017.93 1018.01 1018.21 1018.41 1018.53 1018.69 1018.81 1018.81 1018.81 1018.77 1018.77 1018.77 1018.89 1019.05 1019.01 1018.81 1018.69 1018.41 1018.09 1017.85 1017.69 1017.45
Wind_Speed
7 6 7 7 7 6 6 6 6 6 6 5 6 6 7 5 5 5 5 5 5 6 5 5 5 4 4 5 5 4 4 5 4 3 4 4 4 4 4 4 4 3
8 7 6 6 5 4 5 6 7 7 7 7 7 6 4 5 5 6 6 6 5 6 5 5 5 5 5 5 4 5 4 5 4 1 4 4 3 3 3 2 2 2
7 6 7 7 8 8 7 6 5 6 6 7 5 5 6 4 6 5 6 7 6 6 5 5 4 4 5 5 5 5 4 4 5 3 4 4 3 2 1 0 2 1
8 9 9 8 7 7 6 6 5 5 3 4 6 6 5 5 5 6 6 6 7 5 5 4 4 4 5 4 4 4 3 3 4 4 3 3 3 3 1 2 1 1
9 9 8 7 7 6 6 7 8 7 7 7 5 5 5 5 5 6 6 5 6 6 5 5 5 5 5 4 4 4 2 3 2 2 2 1 1 1 1 1 1 2
6 8 8 9 8 7 7 8 8 8 7 5 7 6 6 7 7 7 6 6 5 6 5 5 5 5 5 5 5 4 3 3 3 3 2 1 3 3 3 3 3 3
9 7 8 8 7 8 9 9 8 8 8 7 6 7 7 7 7 7 7 6 6 4 4 4 3 5 4 5 4 4 4 3 4 4 3 2 0 3 3 4 4 5
7 7 8 7 9 9 9 9 8 8 6 5 7 6 7 8 8 6 6 6 5 4 4 4 4 5 4 4 5 4 4 3 4 4 3 1 2 2 3 3 3 4
10 8 8 8 9 9 10 9 7 6 6 8 7 6 5 6 7 7 7 6 5 5 4 4 3 4 4 5 5 4 3 2 3 2 2 1 1 2 3 3 3 3
8 9 9 9 11 11 11 9 8 7 7 7 7 6 7 4 6 7 7 6 5 4 4 4 4 4 4 4 5 4 3 2 1 1 1 1 2 3 3 3 4 4
11 8 9 10 12 10 10 8 8 8 8 8 8 8 6 7 5 5 6 6 6 5 4 4 5 5 5 4 4 4 3 2 2 1 1 1 3 3 3 4 4 4
13 10 11 12 8 4 6 7 7 8 9 9 10 10 8 7 8 6 6 6 6 5 5 5 4 5 4 3 3 3 3 1 1 0 2 3 4 4 4 5 5 5
10 10 8 6 8 12 9 8 9 10 10 10 10 11 10 9 7 7 4 7 6 6 6 6 5 4 3 3 3 2 1 1 2 3 4 4 4 5 5 5 6 6
10 10 10 10 9 7 6 5 2 2 2 4 8 10 11 11 10 8 6 6 7 6 6 5 6 5 4 3 2 1 1 2 2 3 4 4 5 5 5 6 6 7
7 7 8 9 8 5 5 5 6 7 5 2 2 6 8 10 9 9 8 6 5 6 6 6 6 5 4 4 3 2 2 1 3 3 4 5 5 5 5 6 6 6
7 7 7 8 7 6 6 7 8 8 9 11 9 7 7 8 9 8 8 8 7 6 6 6 5 4 5 7 5 2 2 2 2 3 4 4 5 6 6 6 7 7
5 6 6 6 5 7 8 11 13 13 13 11 8 5 6 8 10 10 8 7 8 8 7 5 5 4 7 6 6 6 4 4 3 4 4 4 5 6 7 7 7 7
6 4 4 5 8 10 9 9 10 10 10 10 11 11 8 8 10 10 9 8 7 7 7 6 5 6 8 7 6 6 5 3 3 3 4 5 5 7 7 7 7 7
6 4 5 6 8 9 9 9 10 11 11 12 13 11 9 10 9 10 10 9 9 9 7 6 5 7 8 7 6 5 3 2 3 4 5 6 6 7 8 7 7 6
6 5 6 7 8 8 9 11 11 12 12 11 9 10 11 9 8 9 9 9 8 8 7 6 5 6 8 6 3 2 4 3 3 5 5 6 7 8 7 7 7 7
7 7 7 6 8 9 9 10 11 10 11 10 11 12 11 11 10 9 9 9 8 7 7 5 4 2 2 1 1 3 6 4 5 5 5 6 7 8 8 8 8 7
7 8 7 7 8 9 9 10 10 11 12 9 8 8 8 8 6 8 8 8 7 6 6 5 2 3 2 1 2 5 6 4 5 6 6 7 7 7 7 6 6 7
8 8 7 8 8 8 9 9 9 8 6 6 9 9 9 9 9 8 8 8 7 6 6 4 2 2 2 2 3 5 4 4 5 6 6 7 7 7 7 7 7 7
8 8 8 8 8 10 9 8 6 6 8 7 10 10 9 9 8 8 7 7 8 7 6 5 3 2 3 3 3 5 4 5 5 6 7 7 7 7 6 6 8 15
8 8 9 9 9 7 6 6 3 2 4 6 9 10 9 8 7 8 6 5 6 6 6 6 4 3 4 4 4 5 4 3 4 5 6 8 7 9 8 9 8 10
7 8 7 8 8 8 9 9 9 9 7 7 5 6 7 6 7 6 7 6 5 6 5 5 5 4 4 6 5 6 6 4 4 6 7 9 8 9 9 8 9 9
Wind_Direction
180 184 188 190 199 198 186 183 187 183 189 175 181 191 185 181 156 152 147 135 136 129 131 128 125 124 119 106 105 95 88 90 80 101 88 95 94 91 75 64 52 39
188 188 195 193 193 199 204 195 187 186 189 186 194 182 180 152 172 153 153 148 139 138 140 140 141 138 128 116 114 98 84 89 90 120 94 89 110 90 97 119 96 99
186 186 193 193 195 200 200 199 191 198 189 194 182 178 175 168 157 162 152 149 145 148 144 132 126 123 121 124 121 111 122 117 123 145 132 143 158 135 191 275 14 101
198 194 195 203 201 200 194 186 202 197 191 163 188 189 175 169 153 154 154 150 142 143 140 143 141 131 117 121 104 95 114 104 133 142 130 131 174 166 194 181 182 307
198 198 202 205 207 198 181 194 200 196 195 197 170 169 161 152 152 154 151 149 142 147 151 154 139 129 125 108 106 103 101 93 98 105 97 37 235 225 242 163 177 240
217 206 202 201 202 191 193 203 205 194 194 183 188 170 172 160 158 157 155 150 155 150 156 142 127 111 109 118 106 108 125 117 137 109 101 329 326 339 329 330 301 277
210 207 211 208 204 199 204 210 203 196 194 192 156 179 163 160 160 160 157 155 154 164 145 135 116 104 112 113 104 115 123 130 127 129 132 145 206 316 318 315 308 301
231 221 215 209 208 205 210 211 204 199 187 158 182 181 169 164 161 156 151 149 147 136 112 109 114 118 129 110 108 100 96 120 113 119 122 145 156 243 277 262 263 279
208 218 218 213 213 214 215 211 203 189 173 179 179 168 177 164 157 150 148 143 129 121 117 119 130 124 127 113 120 122 115 106 123 130 144 172 187 241 256 258 268 259
232 219 212 218 217 216 213 208 193 187 175 176 170 156 163 158 147 145 138 134 122 115 124 135 132 125 116 125 138 141 141 159 157 139 157 183 210 241 261 261 262 268
227 224 223 222 224 222 216 203 194 182 174 171 157 159 157 143 136 137 131 129 137 146 145 148 152 138 131 137 144 143 147 158 170 175 177 212 230 243 256 259 262 255
230 221 220 227 237 263 234 210 197 188 180 171 163 158 153 153 150 153 146 145 143 151 153 153 140 140 142 146 127 127 127 145 139 210 275 261 265 260 255 252 252 255
224 229 226 220 201 222 217 206 198 194 184 173 164 153 152 151 152 147 149 144 150 142 151 150 143 125 114 122 119 109 116 91 15 321 296 293 279 276 273 266 262 262
213 211 210 216 214 213 206 206 228 313 260 167 155 153 155 154 154 153 152 144 150 152 142 129 127 128 129 115 111 112 85 17 309 291 289 291 289 285 286 281 277 275
215 208 209 218 214 183 165 140 107 99 82 354 259 172 159 151 145 141 137 130 130 131 131 135 139 152 158 160 146 142 149 218 278 290 290 289 289 280 275 272 270 268
213 204 204 209 197 163 137 122 119 136 167 182 189 173 156 143 137 141 142 146 141 136 137 143 147 158 167 161 162 162 178 191 219 247 258 267 274 281 273 266 262 260
227 217 203 198 165 146 153 158 168 175 176 166 152 161 166 154 143 143 146 147 145 148 153 155 160 169 167 169 175 182 176 194 206 241 248 255 259 264 271 269 267 259
241 221 193 177 168 178 179 175 172 171 166 162 159 161 176 162 152 152 148 144 143 150 157 165 169 180 175 186 198 206 201 199 210 238 257 262 260 263 261 264 268 268
260 224 197 183 190 187 182 176 176 171 166 169 175 162 152 159 155 144 146 146 149 156 164 172 169 187 188 199 209 217 246 249 245 258 267 265 267 264 264 266 266 268
257 236 212 197 193 190 187 187 181 180 179 173 157 149 151 147 147 143 143 148 155 157 160 171 182 195 200 207 214 268 283 299 281 281 274 267 268 267 267 269 268 271
253 236 224 200 194 194 191 194 191 180 176 168 161 156 150 149 150 149 156 155 154 151 154 170 201 193 128 99 288 288 298 313 294 290 279 273 267 266 266 269 273 271
251 242 225 203 194 195 194 193 190 184 178 164 152 143 139 135 134 140 145 151 155 148 146 173 187 97 158 196 283 295 314 314 307 293 288 279 277 273 275 272 271 268
244 236 225 207 195 191 196 194 182 171 166 163 144 142 139 141 147 153 155 151 152 152 153 170 196 196 181 223 285 306 324 314 305 296 284 284 281 284 280 277 273 270
240 226 215 202 192 194 192 187 176 164 158 162 146 143 140 148 149 143 149 151 151 157 158 157 199 223 206 250 286 307 308 301 292 292 294 289 290 281 277 269 268 274
241 222 207 196 188 175 150 136 117 159 165 160 149 143 143 143 141 141 140 134 136 144 155 145 180 212 220 250 269 283 292 286 296 296 301 298 294 295 289 287 279 273
232 217 201 183 166 149 144 137 129 114 100 79 73 98 128 140 139 136 141 139 134 137 150 157 172 225 227 238 257 275 287 302 303 311 297 296 292 291 292 282 276 273